GW5727 Weather Reports


Display with metric or nautical units.
time (UTC)temp
F
wind
direction
speed
MPH
gust
MPH
rain 1hr
in
rain 24hr
in
rain mn
in
humidity
%
barometer
mb
20260510033704 46 296 0.0 0.0 0.00 0.00 0.00 94 1013.6
20260510033203 46 274 0.0 0.0 0.00 0.00 0.00 94 1013.6
20260510032659 47 273 1.0 1.0 0.00 0.00 0.00 93 1013.9
20260510032154 47 278 1.0 1.0 0.00 0.00 0.00 93 1013.4
20260510031649 47 285 1.0 1.0 0.00 0.00 0.00 93 1013.6
20260510031147 47 263 0.0 0.0 0.00 0.00 0.00 93 1013.5
20260510030646 47 267 0.0 0.0 0.00 0.00 0.00 93 1013.5
20260510030144 47 279 0.0 1.0 0.00 0.00 0.00 92 1013.6
20260510025641 47 274 0.0 0.0 0.00 0.00 0.00 92 1013.6
20260510025138 48 269 0.0 0.0 0.00 0.00 0.00 92 1013.6
20260510024635 48 266 0.0 0.0 0.00 0.00 0.00 92 1013.4
20260510024132 48 267 0.0 0.0 0.00 0.00 0.00 91 1013.4
20260510023627 48 269 0.0 0.0 0.00 0.00 0.00 90 1013.4
20260510023125 48 270 0.0 0.0 0.00 0.00 0.00 90 1013.4
20260510022625 48 281 0.0 1.0 0.00 0.00 0.00 90 1013.1
20260510022120 49 275 0.0 0.0 0.00 0.00 0.00 89 1013.2
20260510021616 50 286 1.0 1.0 0.00 0.00 0.00 89 1013.0
20260510021114 50 273 1.0 1.0 0.00 0.00 0.00 87 1013.0
20260510020608 51 285 1.0 1.0 0.00 0.00 0.00 87 1012.9
20260510020104 51 270 0.0 0.0 0.00 0.00 0.00 86 1012.7
20260510015600 51 271 0.0 1.0 0.00 0.00 0.00 86 1012.7
20260510015057 51 272 0.0 0.0 0.00 0.00 0.00 85 1012.5
20260510014552 51 270 0.0 0.0 0.00 0.00 0.00 85 1012.4
20260510014049 52 269 0.0 0.0 0.00 0.00 0.00 84 1012.5
20260510013544 52 269 0.0 0.0 0.00 0.00 0.00 84 1012.3
20260510013040 52 243 0.0 1.0 0.00 0.00 0.00 84 1012.4
20260510012534 53 270 0.0 1.0 0.00 0.00 0.00 84 1012.2
20260510012031 53 267 0.0 1.0 0.00 0.00 0.00 83 1012.0
20260510011530 53 267 0.0 0.0 0.00 0.00 0.00 83 1012.3
20260510011026 54 279 1.0 1.0 0.00 0.00 0.00 82 1012.1
20260510010523 54 278 0.0 0.0 0.00 0.00 0.00 81 1012.1
20260510010020 54 270 1.0 1.0 0.00 0.00 0.00 80 1012.0
20260510005516 54 273 1.0 1.0 0.00 0.00 0.00 80 1012.1
20260510005014 55 279 1.0 2.0 0.00 0.00 0.00 79 1011.8
20260510004511 56 268 0.0 0.0 0.00 0.00 0.00 77 1012.0
20260510004009 56 279 0.0 1.0 0.00 0.00 0.00 78 1011.4
20260510003505 56 275 0.0 0.0 0.00 0.00 0.00 77 1011.6
20260510003001 57 271 0.0 0.0 0.00 0.00 0.00 76 1011.1
20260510002457 57 272 0.0 0.0 0.00 0.00 0.00 75 1011.0
20260510001954 58 282 1.0 1.0 0.00 0.00 0.00 75 1011.0
20260510001451 58 275 1.0 1.0 0.00 0.00 0.00 73 1011.0
20260510000949 59 268 0.0 0.0 0.00 0.00 0.00 72 1010.8
20260510000444 60 266 0.0 0.0 0.00 0.00 0.00 70 1010.8
20260509235941 61 285 1.0 2.0 0.00 0.00 0.00 69 1010.9
20260509235438 62 258 0.0 0.0 0.00 0.00 0.00 66 1010.6
20260509234934 63 283 1.0 1.0 0.00 0.00 0.00 64 1010.7
20260509234431 65 277 0.0 0.0 0.00 0.00 0.00 60 1010.7
20260509233929 66 266 0.0 0.0 0.00 0.00 0.00 56 1010.8
20260509233426 66 261 0.0 0.0 0.00 0.00 0.00 53 1010.7
20260509232922 66 268 0.0 0.0 0.00 0.00 0.00 56 1010.6
20260509232420 66 240 0.0 1.0 0.00 0.00 0.00 56 1010.7
20260509231915 67 267 0.0 0.0 0.00 0.00 0.00 56 1010.7
20260509231413 68 282 1.0 2.0 0.00 0.00 0.00 52 1010.8
20260509230911 70 241 1.0 1.0 0.00 0.00 0.00 52 1010.6
20260509230407 71 262 0.0 0.0 0.00 0.00 0.00 48 1010.7
20260509225903 71 265 0.0 0.0 0.00 0.00 0.00 49 1010.7
20260509225400 71 262 0.0 0.0 0.00 0.00 0.00 48 1010.5
20260509224856 69 266 0.0 0.0 0.00 0.00 0.00 50 1010.6
20260509224351 68 268 0.0 1.0 0.00 0.00 0.00 55 1010.5
20260509223849 67 275 0.0 0.0 0.00 0.00 0.00 55 1010.6
20260509223345 67 275 0.0 1.0 0.00 0.00 0.00 54 1010.4
20260509222842 68 275 0.0 0.0 0.00 0.00 0.00 50 1010.8
20260509222337 68 274 0.0 0.0 0.00 0.00 0.00 55 1010.6
20260509221833 68 279 0.0 0.0 0.00 0.00 0.00 50 1010.6
20260509221331 69 278 0.0 1.0 0.00 0.00 0.00 50 1010.7
20260509220831 70 269 1.0 1.0 0.00 0.00 0.00 50 1010.6
20260509220327 70 302 1.0 1.0 0.00 0.00 0.00 52 1010.5
20260509215822 70 312 1.0 2.0 0.00 0.00 0.00 46 1010.5
20260509215320 70 290 0.0 1.0 0.00 0.00 0.00 50 1010.7
20260509214816 70 266 1.0 2.0 0.00 0.00 0.00 48 1010.6
20260509214313 70 250 0.0 1.0 0.00 0.00 0.00 46 1010.5
20260509213810 71 211 1.0 1.0 0.00 0.00 0.00 47 1010.5
20260509213306 71 247 0.0 0.0 0.00 0.00 0.00 46 1010.3
20260509212804 71 263 1.0 1.0 0.00 0.00 0.00 45 1010.3
20260509212301 71 265 0.0 0.0 0.00 0.00 0.00 46 1010.1
20260509211756 71 287 0.0 0.0 0.00 0.00 0.00 47 1010.0
20260509211253 71 285 1.0 1.0 0.00 0.00 0.00 44 1010.1
20260509210749 71 269 0.0 0.0 0.00 0.00 0.00 43 1010.1
20260509210247 71 278 1.0 2.0 0.00 0.00 0.00 45 1010.0
20260509205747 71 287 1.0 2.0 0.00 0.00 0.00 43 1010.0
20260509205242 71 282 1.0 1.0 0.00 0.00 0.00 48 1009.9
20260509204738 70 273 0.0 0.0 0.00 0.00 0.00 49 1009.6
20260509204234 70 281 0.0 1.0 0.00 0.00 0.00 42 1009.6
20260509203730 71 281 1.0 1.0 0.00 0.00 0.00 44 1009.4
20260509203229 71 274 1.0 1.0 0.00 0.00 0.00 46 1009.7
20260509202724 71 277 1.0 1.0 0.00 0.00 0.00 43 1009.7
20260509202220 71 265 0.0 1.0 0.00 0.00 0.00 44 1009.6
20260509201714 72 258 3.0 5.0 0.00 0.00 0.00 40 1009.6
20260509201212 73 225 1.0 1.0 0.00 0.00 0.00 39 1009.7
20260509200708 73 243 2.0 2.0 0.00 0.00 0.00 40 1009.3
20260509200203 73 217 3.0 5.0 0.00 0.00 0.00 40 1009.6
20260509195659 73 260 0.0 1.0 0.00 0.00 0.00 40 1009.6
20260509195155 74 285 3.0 3.0 0.00 0.00 0.00 41 1009.6
20260509194654 75 257 1.0 1.0 0.00 0.00 0.00 42 1009.7
20260509194152 74 165 5.0 6.0 0.00 0.00 0.00 44 1009.7
20260509193647 74 47 5.0 6.0 0.00 0.00 0.00 43 1009.7
20260509193143 74 154 3.0 5.0 0.00 0.00 0.00 43 1009.7
20260509192640 72 253 0.0 0.0 0.00 0.00 0.00 43 1009.7
20260509192135 71 265 0.0 1.0 0.00 0.00 0.00 47 1010.2
20260509191635 70 243 1.0 1.0 0.00 0.00 0.00 48 1010.2
20260509191132 72 215 1.0 1.0 0.00 0.00 0.00 48 1010.1
20260509190628 69 252 2.0 2.0 0.00 0.00 0.00 48 1010.1
20260509190126 70 32 3.0 3.0 0.00 0.00 0.00 50 1010.3
20260509185623 69 244 1.0 2.0 0.00 0.00 0.00 52 1010.3
20260509185119 70 269 1.0 1.0 0.00 0.00 0.00 50 1010.2
20260509184618 69 78 2.0 2.0 0.00 0.00 0.00 51 1010.5
20260509184114 69 273 3.0 3.0 0.00 0.00 0.00 51 1010.4
20260509183609 74 57 3.0 5.0 0.00 0.00 0.00 48 1010.2
20260509183105 72 231 1.0 1.0 0.00 0.00 0.00 47 1010.4
20260509182602 72 99 1.0 1.0 0.00 0.00 0.00 48 1010.5
20260509182059 70 271 2.0 2.0 0.00 0.00 0.00 51 1010.4
20260509181557 69 60 5.0 6.0 0.00 0.00 0.00 53 1010.7
20260509181054 70 146 3.0 3.0 0.00 0.00 0.00 50 1010.7
20260509180550 68 286 3.0 3.0 0.00 0.00 0.00 52 1010.7
20260509180047 70 351 2.0 3.0 0.00 0.00 0.00 52 1011.0
20260509175542 68 268 0.0 0.0 0.00 0.00 0.00 54 1011.2
20260509175040 66 311 3.0 3.0 0.00 0.00 0.00 55 1011.1
20260509174536 67 277 2.0 3.0 0.00 0.00 0.00 57 1011.2
20260509174031 65 307 1.0 1.0 0.00 0.00 0.00 56 1011.4
20260509173526 64 208 1.0 1.0 0.00 0.00 0.00 60 1011.5
20260509173022 64 280 0.0 1.0 0.00 0.00 0.00 60 1011.8
20260509172520 65 278 1.0 1.0 0.00 0.00 0.00 58 1012.0
20260509172015 65 237 2.0 2.0 0.00 0.00 0.00 57 1011.7
20260509171512 64 269 1.0 1.0 0.00 0.00 0.00 61 1011.6
20260509171008 64 275 2.0 2.0 0.00 0.00 0.00 60 1011.4
20260509170504 63 285 0.0 0.0 0.00 0.00 0.00 58 1011.5
20260509165959 64 355 2.0 3.0 0.00 0.00 0.00 56 1011.6
20260509165458 65 244 1.0 1.0 0.00 0.00 0.00 55 1011.5
20260509164955 65 293 1.0 1.0 0.00 0.00 0.00 55 1011.4
20260509164450 66 205 1.0 2.0 0.00 0.00 0.00 54 1011.3
20260509163946 67 220 2.0 2.0 0.00 0.00 0.00 50 1011.3
20260509163444 68 274 1.0 1.0 0.00 0.00 0.00 48 1011.2
20260509162943 68 255 1.0 1.0 0.00 0.00 0.00 45 1011.2
20260509162442 68 276 1.0 1.0 0.00 0.00 0.00 44 1011.3
20260509161938 69 312 1.0 1.0 0.00 0.00 0.00 46 1011.3
20260509161434 69 301 1.0 1.0 0.00 0.00 0.00 45 1011.5
20260509160930 69 266 2.0 2.0 0.00 0.00 0.00 46 1011.5
20260509160426 68 268 1.0 1.0 0.00 0.00 0.00 48 1011.2
20260509155921 68 213 1.0 1.0 0.00 0.00 0.00 49 1011.3
20260509155418 68 303 0.0 1.0 0.00 0.00 0.00 50 1011.5
20260509154914 68 209 2.0 5.0 0.00 0.00 0.00 48 1011.3
20260509154411 68 258 4.0 6.0 0.00 0.00 0.00 49 1011.3
20260509153907 68 281 1.0 2.0 0.00 0.00 0.00 49 1011.4
20260509153405 67 263 2.0 3.0 0.00 0.00 0.00 48 1011.3
20260509152902 67 289 1.0 1.0 0.00 0.00 0.00 50 1011.4
20260509152358 67 260 1.0 1.0 0.00 0.00 0.00 48 1011.4
20260509151855 68 278 1.0 1.0 0.00 0.00 0.00 49 1011.1
20260509151350 68 220 1.0 1.0 0.00 0.00 0.00 49 1011.1
20260509150849 67 76 2.0 3.0 0.00 0.00 0.00 49 1011.3
20260509150347 68 297 1.0 1.0 0.00 0.00 0.00 47 1011.5
20260509145844 68 278 2.0 2.0 0.00 0.00 0.00 46 1011.5
20260509145344 69 231 0.0 0.0 0.00 0.00 0.00 46 1011.3
20260509144841 68 264 0.0 0.0 0.00 0.00 0.00 46 1011.3
20260509144338 68 269 1.0 2.0 0.00 0.00 0.00 44 1011.6
20260509143835 68 284 2.0 2.0 0.00 0.00 0.00 44 1011.4
20260509143332 68 289 3.0 3.0 0.00 0.00 0.00 45 1011.4
20260509142828 67 259 2.0 2.0 0.00 0.00 0.00 44 1011.5
20260509142325 67 288 1.0 2.0 0.00 0.00 0.00 47 1011.5
20260509141820 69 346 3.0 3.0 0.00 0.00 0.00 43 1011.4
20260509141318 69 278 2.0 2.0 0.00 0.00 0.00 46 1011.8
20260509140814 68 120 1.0 1.0 0.00 0.00 0.00 47 1011.8
20260509140311 66 143 3.0 3.0 0.00 0.00 0.00 54 1011.7
20260509135809 66 223 3.0 3.0 0.00 0.00 0.00 52 1012.2
20260509135306 64 256 2.0 2.0 0.00 0.00 0.00 56 1012.1
20260509134803 64 280 1.0 1.0 0.00 0.00 0.00 57 1012.1
20260509134301 63 254 0.0 1.0 0.00 0.00 0.00 58 1012.3
20260509133757 61 352 3.0 3.0 0.00 0.00 0.00 63 1012.3
20260509133254 62 276 1.0 2.0 0.00 0.00 0.00 59 1012.6
20260509132753 61 274 0.0 1.0 0.00 0.00 0.00 68 1012.6
20260509132251 59 253 0.0 0.0 0.00 0.00 0.00 64 1012.8
20260509131747 58 283 0.0 1.0 0.00 0.00 0.00 68 1012.5
20260509131244 58 274 0.0 0.0 0.00 0.00 0.00 70 1012.6
20260509130740 58 269 1.0 1.0 0.00 0.00 0.00 67 1012.5
20260509130236 58 265 0.0 0.0 0.00 0.00 0.00 66 1012.5
20260509125733 58 263 0.0 0.0 0.00 0.00 0.00 65 1012.4
20260509125230 57 262 0.0 0.0 0.00 0.00 0.00 65 1012.2
20260509124726 57 237 1.0 1.0 0.00 0.00 0.00 70 1012.1
20260509124223 57 293 0.0 0.0 0.00 0.00 0.00 69 1012.6
20260509123721 56 269 0.0 0.0 0.00 0.00 0.00 71 1012.5
20260509123218 55 257 0.0 0.0 0.00 0.00 0.00 74 1012.4
20260509122713 55 242 1.0 1.0 0.00 0.00 0.00 74 1012.4
20260509122211 54 264 0.0 0.0 0.00 0.00 0.00 77 1012.4
20260509121707 54 271 0.0 0.0 0.00 0.00 0.00 78 1012.4
20260509121205 53 287 1.0 1.0 0.00 0.00 0.00 78 1012.4
20260509120703 53 277 0.0 0.0 0.00 0.00 0.00 78 1012.2
20260509120201 53 265 0.0 0.0 0.00 0.00 0.00 81 1012.4
20260509115658 53 284 0.0 1.0 0.00 0.00 0.00 80 1012.5
20260509115155 52 270 0.0 0.0 0.00 0.00 0.00 81 1012.4
20260509114653 52 283 1.0 1.0 0.00 0.00 0.00 81 1012.5
20260509114152 52 277 0.0 0.0 0.00 0.00 0.00 81 1012.5
20260509113650 52 270 0.0 0.0 0.00 0.00 0.00 80 1012.6
20260509113147 52 294 1.0 1.0 0.00 0.00 0.00 79 1012.6
20260509112643 52 269 0.0 0.0 0.00 0.00 0.00 79 1012.3
20260509112141 52 275 0.0 0.0 0.00 0.00 0.00 78 1012.3
20260509111638 52 271 0.0 0.0 0.00 0.00 0.00 77 1012.3
20260509111134 52 271 0.0 0.0 0.00 0.00 0.00 77 1012.1
20260509110632 52 276 0.0 1.0 0.00 0.00 0.00 78 1012.1
20260509110129 52 263 0.0 0.0 0.00 0.00 0.00 76 1012.2
20260509105627 51 260 0.0 0.0 0.00 0.00 0.00 77 1012.4
20260509105124 51 264 0.0 0.0 0.00 0.00 0.00 77 1012.2
20260509104621 51 264 0.0 0.0 0.00 0.00 0.00 75 1012.1
20260509104117 52 271 0.0 0.0 0.00 0.00 0.00 74 1012.2
20260509103616 52 245 1.0 1.0 0.00 0.00 0.00 74 1012.2
20260509103113 52 248 1.0 1.0 0.00 0.00 0.00 74 1012.2
20260509102610 52 229 2.0 2.0 0.00 0.00 0.00 73 1012.0
20260509102107 52 272 0.0 0.0 0.00 0.00 0.00 75 1012.3
20260509101603 53 265 0.0 0.0 0.00 0.00 0.00 74 1012.2
20260509101100 53 272 0.0 0.0 0.00 0.00 0.00 74 1012.2
20260509100557 54 264 0.0 0.0 0.00 0.00 0.00 73 1012.3
20260509100055 56 277 0.0 0.0 0.00 0.00 0.00 71 1012.0
20260509095551 56 273 0.0 0.0 0.00 0.00 0.00 66 1012.1
20260509095049 56 280 1.0 1.0 0.00 0.00 0.00 65 1012.1
20260509094545 57 273 0.0 1.0 0.00 0.00 0.00 64 1012.0
20260509094042 57 266 0.0 0.0 0.00 0.00 0.00 62 1012.1
20260509093541 58 281 1.0 1.0 0.00 0.00 0.00 62 1012.2
20260509093038 58 273 0.0 0.0 0.00 0.00 0.00 60 1012.1
20260509092536 58 283 1.0 1.0 0.00 0.00 0.00 61 1012.3
20260509092034 59 283 1.0 1.0 0.00 0.00 0.00 60 1012.4
20260509091531 58 263 3.0 3.0 0.00 0.00 0.00 59 1012.2
20260509091028 57 279 4.0 5.0 0.00 0.00 0.00 61 1012.4
20260509090525 57 230 1.0 2.0 0.00 0.00 0.00 61 1012.3
20260509090023 58 283 1.0 1.0 0.00 0.00 0.00 60 1012.2
20260509085519 58 265 0.0 1.0 0.00 0.00 0.00 59 1012.3
20260509085015 58 264 1.0 1.0 0.00 0.00 0.00 60 1012.3
20260509084513 58 227 0.0 1.0 0.00 0.00 0.00 59 1012.3
20260509084010 57 286 1.0 1.0 0.00 0.00 0.00 60 1012.5
20260509083507 58 273 1.0 1.0 0.00 0.00 0.00 58 1012.5
20260509083004 58 256 0.0 0.0 0.00 0.00 0.00 58 1012.6
20260509082501 58 264 0.0 0.0 0.00 0.00 0.00 58 1012.5
20260509081958 58 226 0.0 1.0 0.00 0.00 0.00 58 1012.5
20260509081455 57 256 0.0 0.0 0.00 0.00 0.00 58 1012.5
20260509080952 58 288 2.0 2.0 0.00 0.00 0.00 58 1012.5
20260509080450 58 266 1.0 2.0 0.00 0.00 0.00 58 1012.7
20260509075948 58 280 0.0 1.0 0.00 0.00 0.00 57 1012.8
20260509075445 58 268 3.0 3.0 0.00 0.00 0.00 57 1012.4
20260509074943 58 310 2.0 3.0 0.00 0.00 0.00 57 1012.8
20260509074440 58 203 1.0 1.0 0.00 0.00 0.00 56 1012.8
20260509073936 58 214 2.0 2.0 0.00 0.00 0.00 56 1012.7
20260509073433 58 276 1.0 1.0 0.00 0.00 0.00 56 1012.8
20260509072929 57 301 1.0 1.0 0.00 0.00 0.00 56 1012.8
20260509072426 57 266 1.0 1.0 0.00 0.00 0.00 58 1012.9
20260509071922 57 265 0.0 0.0 0.00 0.00 0.00 59 1012.8
20260509071419 57 272 0.0 1.0 0.00 0.00 0.00 60 1012.9
20260509070917 56 281 0.0 1.0 0.00 0.00 0.00 61 1013.0
20260509070414 54 301 1.0 2.0 0.00 0.00 0.00 65 1012.8
20260509065909 54 249 1.0 1.0 0.00 0.00 0.00 67 1013.0
20260509065406 53 272 1.0 1.0 0.00 0.00 0.00 67 1013.1
20260509064902 52 262 1.0 1.0 0.00 0.00 0.00 72 1013.0
20260509064400 52 276 1.0 1.0 0.00 0.00 0.00 72 1013.2
20260509063857 51 253 1.0 2.0 0.00 0.00 0.00 69 1013.2
20260509063353 50 267 0.0 0.0 0.00 0.00 0.00 76 1013.2
20260509062850 50 266 0.0 0.0 0.00 0.00 0.00 76 1013.2
20260509062347 50 272 0.0 0.0 0.00 0.00 0.00 76 1013.2
20260509061844 50 282 0.0 0.0 0.00 0.00 0.00 78 1013.2
20260509061343 50 264 0.0 0.0 0.00 0.00 0.00 76 1013.5
20260509060839 49 262 0.0 0.0 0.00 0.00 0.00 78 1013.5
20260509060336 48 265 2.0 2.0 0.00 0.00 0.00 81 1013.4
20260509055831 48 271 1.0 1.0 0.00 0.00 0.00 83 1013.3
20260509055327 47 272 1.0 1.0 0.00 0.00 0.00 85 1013.3
20260509054824 46 268 1.0 2.0 0.00 0.00 0.00 85 1013.4
20260509054321 46 272 0.0 0.0 0.00 0.00 0.00 87 1013.6
20260509053819 46 249 0.0 1.0 0.00 0.00 0.00 87 1013.6
20260509053316 46 287 3.0 3.0 0.00 0.00 0.00 87 1013.5
20260509052814 46 277 1.0 1.0 0.00 0.00 0.00 87 1013.5
20260509052311 46 275 0.0 1.0 0.00 0.00 0.00 87 1013.7
20260509051809 46 290 2.0 2.0 0.00 0.00 0.00 87 1013.8
20260509051307 46 277 0.0 0.0 0.00 0.00 0.00 86 1013.7
20260509050803 46 289 1.0 1.0 0.00 0.00 0.00 86 1013.7
20260509050300 47 280 1.0 1.0 0.00 0.00 0.00 85 1013.7
20260509045757 47 264 0.0 0.0 0.00 0.00 0.00 85 1013.6
20260509045254 47 273 0.0 1.0 0.00 0.00 0.00 84 1013.9
20260509044751 47 276 1.0 1.0 0.00 0.00 0.00 84 1013.8
20260509044249 48 288 1.0 1.0 0.00 0.00 0.00 84 1013.8
20260509043745 48 270 0.0 0.0 0.00 0.00 0.00 83 1013.7
20260509043241 48 271 1.0 1.0 0.00 0.00 0.00 83 1013.6
20260509042737 48 282 0.0 1.0 0.00 0.00 0.00 82 1013.6
20260509042233 48 266 0.0 0.0 0.00 0.00 0.00 81 1013.6
20260509041730 48 279 1.0 1.0 0.00 0.00 0.00 81 1013.7
20260509041228 48 301 1.0 1.0 0.00 0.00 0.00 81 1013.8
20260509040726 48 264 0.0 0.0 0.00 0.00 0.00 82 1013.8
20260509040222 48 277 1.0 1.0 0.00 0.00 0.00 82 1013.6
20260509035719 48 266 0.0 0.0 0.00 0.00 0.00 82 1013.8
20260509035216 48 296 1.0 2.0 0.00 0.00 0.00 82 1013.7
20260509034713 48 264 0.0 0.0 0.00 0.00 0.00 81 1013.9
20260509034211 48 259 0.0 0.0 0.00 0.00 0.00 81 1013.7